Weather History for Renton, WA

Change the Weather History Date:

Friday, May 25, 2012

  Actual Average Record
Temperature  
Mean Temperature 58 °F -  
Max Temperature 71 °F 65 °F 78 °F (2001)
Min Temperature 48 °F 49 °F 46 °F (2000)
Degree Days  
Heating Degree Days 6    
Growing Degree Days 8 (Base 50)    
Moisture  
Dew Point 47 °F    
Average Humidity 65    
Maximum Humidity 83    
Minimum Humidity 42    
Precipitation  
Precipitation 0.00 in - - ()
Sea Level Pressure  
Sea Level Pressure 29.90 in    
Wind  
Wind Speed 5 mph (NW)    
Max Wind Speed 13 mph    
Max Gust Speed -    
Visibility 10 miles    
Events Rain    
Averages and records for this station are not official NWS values.
T = Trace of Precipitation, MM = Missing Value Source: NWS Daily Summary

Daily Weather History Graph

Daily Weather History Graph

Search for Another Location

Airport:

Trip Planner

Search our weather history database for the weather conditions in past years. The results will help you decide how hot, cold, wet, or windy it might be!

Date:

Astronomy

May. 25, 2012 Rise Set
Actual Time 5:20 AM PDT 8:51 PM PDT
Civil Twilight 4:42 AM PDT 9:30 PM PDT
Nautical Twilight 3:51 AM PDT 10:21 PM PDT
Astronomical Twilight 2:43 AM PDT 11:30 PM PDT
Moon 9:31 AM PDT (5/25) No Moon Set
Length of Visible Light 16h 47m
Length of Day
15h 31m
Waxing Crescent, 20% of the Moon is Illuminated
May 25
Waxing Crescent
May 28
First Quarter
Jun 4
Full
Jun 11
Last Quarter
Jun 19
New

Hourly Weather History & Observations

Time (PDT) Temp. Dew Point Humidity Pressure Visibility Wind Dir Wind Speed Gust Speed Precip Events Conditions
12:53 AM 53.1 °F 42.1 °F 66% 29.91 in 10.0 mi Variable 4.6 mph - N/A   Mostly Cloudy
1:53 AM 52.0 °F 44.1 °F 74% 29.90 in 10.0 mi NNW 5.8 mph - N/A   Clear
2:53 AM 51.1 °F 44.1 °F 77% 29.91 in 10.0 mi Calm Calm - N/A   Partly Cloudy
3:53 AM 50.0 °F 44.1 °F 80% 29.91 in 10.0 mi North 3.5 mph - N/A   Clear
4:53 AM 48.0 °F 43.0 °F 83% 29.91 in 10.0 mi Calm Calm - N/A   Clear
5:53 AM 50.0 °F 44.1 °F 80% 29.92 in 10.0 mi NNW 3.5 mph - N/A   Clear
6:53 AM 52.0 °F 46.0 °F 80% 29.92 in 10.0 mi NW 6.9 mph - N/A   Clear
7:53 AM 54.0 °F 46.0 °F 75% 29.93 in 10.0 mi Variable 4.6 mph - N/A   Clear
8:53 AM 55.4 °F 46.4 °F 72% 29.91 in 10.0 mi NNW 6.9 mph - N/A   Clear
9:53 AM 57.9 °F 48.0 °F 70% 29.92 in 10.0 mi NNW 8.1 mph - N/A   Partly Cloudy
10:53 AM 59.0 °F 48.9 °F 69% 29.91 in 10.0 mi NNW 6.9 mph - N/A   Clear
11:53 AM 62.1 °F 48.9 °F 62% 29.89 in 10.0 mi NW 9.2 mph - N/A   Clear
12:53 PM 66.0 °F 50.0 °F 56% 29.88 in 10.0 mi NW 12.7 mph - N/A   Partly Cloudy
1:53 PM 64.9 °F 50.0 °F 58% 29.88 in 10.0 mi NW 12.7 mph - N/A   Overcast
2:53 PM 66.9 °F 51.1 °F 57% 29.88 in 10.0 mi WNW 12.7 mph - N/A   Clear
3:53 PM 69.1 °F 48.9 °F 49% 29.87 in 10.0 mi NW 9.2 mph - N/A   Clear
4:53 PM 68.0 °F 48.0 °F 49% 29.86 in 10.0 mi NW 5.8 mph - 0.00 in   Partly Cloudy
5:53 PM 66.0 °F 48.9 °F 54% 29.86 in 10.0 mi NW 4.6 mph - 0.00 in Rain Light Rain
6:53 PM 68.0 °F 44.1 °F 42% 29.86 in 10.0 mi Calm Calm - 0.00 in   Partly Cloudy
7:53 PM 66.9 °F 46.0 °F 47% 29.87 in 9.0 mi Calm Calm - N/A   Clear
8:53 PM 64.0 °F 46.0 °F 52% 29.88 in 9.0 mi Calm Calm - N/A   Clear
9:53 PM 59.0 °F 48.0 °F 67% 29.90 in 10.0 mi South 3.5 mph - N/A   Clear
10:53 PM 57.0 °F 48.9 °F 74% 29.91 in 10.0 mi East 3.5 mph - N/A   Clear
11:53 PM 55.0 °F 48.0 °F 77% 29.91 in 9.0 mi Calm Calm - N/A   Clear